Location: Madrid
(40.4000°N, 3.6830°W)
Time: 12:39:50
(UTC+01:00)

ISS - Pass Details

Date: 24 October 2020
Orbit: 417 x 420 km, 51.6° (Epoch: 29 October)

Event Time Altitude Azimuth Distance (km) Brightness Sun altitude
Exits shadow 07:37:38 14° 240° (WSW) 1,271 -1.8 -11.7°
Maximum altitude 07:40:26 73° 324° (NW) 440 -3.8 -11.2°
Drops below altitude 10° 07:43:47 10° 50° (NE) 1,496 -0.3 -10.5°
Sets 07:45:54 0° 52° (NE) 2,363 0.8 -10.1°
